Location: Campillo
(40.8621°N, 4.2488°W)
Time: 11:57:56
(UTC+00:00)

GPS 2-04 Rocket1 - Pass Details

Date: 11 May 2021
Orbit: 416 x 540 km, 35.6° (Epoch: 13 June)

Event Time Altitude Azimuth Distance (km) Brightness Sun altitude
Rises 20:20:06 0° 238° (WSW) 2,678 6.7 -10.0°
Reaches altitude 10° 20:22:33 10° 227° (SW) 1,782 5.6 -10.4°
Maximum altitude 20:26:09 29° 166° (SSE) 978 3.7 -11.0°
Enters shadow 20:28:33 17° 116° (ESE) 1,389 4.2 -11.3°
